FW9355 Weather Reports


time (UTC)temp
C
wind
direction
speed
KPH
gust
KPH
rain 1hr
cm
rain 24hr
cm
rain mn
cm
humidity
%
barometer
mb
20260509054600 13 150 3.2 9.7 0.03 0.61 0.03 89 1008.9
20260509054102 12 196 1.6 9.7 0.00 0.58 0.00 89 1009.0
20260509053600 12 0 1.6 9.7 0.00 0.58 0.00 89 1009.0
20260509053103 12 225 1.6 6.4 0.00 0.58 0.00 89 1009.1
20260509052601 12 264 1.6 6.4 0.00 0.58 0.00 89 1009.1
20260509052100 12 161 1.6 6.4 0.00 0.58 0.00 89 1009.1
20260509051606 12 230 0.0 11.3 0.00 0.58 0.00 89 1009.2
20260509051102 12 141 1.6 11.3 0.00 0.58 0.00 89 1009.1
20260509050604 12 171 1.6 14.5 0.00 0.58 0.00 89 1009.1
20260509050104 12 161 3.2 14.5 0.00 0.58 0.00 89 1009.0
20260509045559 12 141 3.2 14.5 0.00 0.58 0.00 89 1009.0
20260509045059 12 261 1.6 11.3 0.00 0.58 0.00 89 1009.0
20260509044605 12 286 1.6 11.3 0.00 0.58 0.00 89 1009.1
20260509044100 12 327 1.6 9.7 0.00 0.58 0.00 89 1009.1
20260509043604 12 279 1.6 9.7 0.00 0.58 0.00 89 1009.1
20260509043104 12 166 3.2 9.7 0.00 0.58 0.00 89 1009.1
20260509042600 12 161 0.0 8.0 0.03 0.58 0.00 89 1009.0
20260509042100 12 163 3.2 8.0 0.03 0.58 0.00 89 1009.1
20260509041602 12 164 3.2 8.0 0.03 0.58 0.00 89 1009.1
20260509041100 12 171 1.6 8.0 0.03 0.58 0.00 89 1009.2
20260509040603 12 0 0.0 3.2 0.03 0.58 0.00 89 1009.1
20260509035559 12 265 1.6 6.4 0.03 0.58 0.58 89 1009.1
20260509035100 12 148 1.6 6.4 0.03 0.58 0.58 89 1008.9
20260509034605 12 168 1.6 9.7 0.03 0.58 0.58 89 1008.9
20260509034059 12 0 1.6 9.7 0.03 0.58 0.58 89 1009.0
20260509033600 12 157 3.2 8.0 0.03 0.58 0.58 89 1009.0
20260509033111 12 183 0.0 6.4 0.03 0.58 0.58 88 1009.0
20260509032600 12 165 0.0 8.0 0.00 0.56 0.56 88 1009.1
20260509032102 12 245 0.0 8.0 0.00 0.56 0.56 88 1009.1
20260509031600 12 262 0.0 8.0 0.00 0.56 0.56 88 1009.1
20260509031100 12 191 1.6 11.3 0.00 0.56 0.56 88 1009.1
20260509030600 12 0 1.6 11.3 0.03 0.56 0.56 88 1009.2
20260509030108 12 225 3.2 12.9 0.03 0.56 0.56 88 1009.2
20260509025600 12 214 1.6 12.9 0.03 0.56 0.56 88 1009.4
20260509025101 12 264 3.2 11.3 0.03 0.56 0.56 88 1009.3
20260509024605 12 288 1.6 8.0 0.03 0.56 0.56 88 1009.3
20260509024059 12 161 1.6 14.5 0.03 0.56 0.56 88 1009.3
20260509023601 12 178 4.8 14.5 0.03 0.56 0.56 88 1009.4
20260509023057 12 294 3.2 14.5 0.03 0.56 0.56 88 1009.5
20260509022559 12 213 3.2 12.9 0.03 0.56 0.56 89 1009.7
20260509022100 12 159 3.2 14.5 0.03 0.56 0.56 89 1009.5
20260509021601 12 259 4.8 14.5 0.03 0.56 0.56 89 1009.5
20260509021059 12 273 3.2 12.9 0.05 0.56 0.56 89 1009.4
20260509020559 12 279 3.2 12.9 0.03 0.53 0.53 89 1009.1
20260509015603 13 181 3.2 12.9 0.03 0.53 0.53 89 1009.2
20260509015100 13 270 3.2 11.3 0.03 0.53 0.53 89 1009.0
20260509014600 13 287 3.2 11.3 0.03 0.53 0.53 89 1009.3
20260509014059 13 0 3.2 11.3 0.03 0.53 0.53 89 1009.1
20260509013600 13 266 3.2 11.3 0.03 0.53 0.53 90 1009.3
20260509013110 12 261 1.6 11.3 0.03 0.53 0.53 90 1009.2
20260509012600 12 149 3.2 11.3 0.03 0.53 0.53 90 1009.0
20260509012100 12 0 3.2 9.7 0.03 0.53 0.53 90 1009.1
20260509011606 12 188 1.6 6.4 0.03 0.53 0.53 89 1009.1
20260509011059 12 0 1.6 4.8 0.00 0.51 0.51 89 1009.1
20260509010559 12 0 0.0 4.8 0.00 0.51 0.51 89 1009.3
20260509010101 12 190 0.0 6.4 0.03 0.51 0.51 89 1009.2
20260509005600 12 226 0.0 6.4 0.03 0.51 0.51 89 1009.2
20260509005103 12 270 1.6 8.0 0.05 0.51 0.51 89 1009.1
20260509004603 12 0 1.6 9.7 0.05 0.51 0.51 89 1009.1
20260509004103 12 166 1.6 9.7 0.05 0.51 0.51 89 1009.1
20260509003556 12 290 1.6 6.4 0.05 0.51 0.51 89 1009.2
20260509003106 12 280 1.6 8.0 0.05 0.51 0.51 89 1009.2
20260509002600 12 166 1.6 9.7 0.05 0.51 0.51 89 1009.3
20260509002102 12 0 1.6 9.7 0.05 0.51 0.51 89 1009.3
20260509001559 12 157 1.6 11.3 0.08 0.51 0.51 89 1009.3
20260509001100 12 252 1.6 11.3 0.08 0.51 0.51 89 1009.4
20260509000601 12 0 1.6 8.0 0.10 0.51 0.51 89 1009.2
20260508235600 12 61 0.0 4.8 0.10 0.48 0.48 89 1009.7
20260508235100 12 239 1.6 6.4 0.10 0.46 0.46 89 1009.4
20260508234638 12 0 0.0 6.4 0.10 0.46 0.46 89 1009.4
20260508234101 12 263 0.0 4.8 0.13 0.46 0.46 89 1009.5
20260508233601 12 291 0.0 6.4 0.13 0.46 0.46 89 1009.5
20260508233103 12 299 0.0 9.7 0.15 0.46 0.46 88 1009.5
20260508232559 12 288 0.0 9.7 0.18 0.46 0.46 88 1009.6
20260508232059 12 154 3.2 11.3 0.20 0.46 0.46 88 1009.5
20260508231601 12 157 1.6 11.3 0.18 0.43 0.43 88 1009.6
20260508231100 12 308 1.6 8.0 0.20 0.43 0.43 88 1009.8
20260508230559 12 264 1.6 8.0 0.23 0.41 0.41 88 1009.7
20260508230059 12 232 3.2 8.0 0.23 0.38 0.38 88 1009.6
20260508225600 12 237 0.0 6.4 0.25 0.36 0.36 88 1009.5
20260508225100 12 163 3.2 6.4 0.25 0.36 0.36 88 1009.6
20260508224612 13 100 0.0 4.8 0.28 0.36 0.36 88 1009.5
20260508224101 13 328 1.6 4.8 0.28 0.33 0.33 88 1009.6
20260508223600 13 328 0.0 3.2 0.28 0.33 0.33 87 1009.7
20260508223100 12 329 0.0 3.2 0.28 0.30 0.30 87 1009.9
20260508222559 13 329 0.0 1.6 0.25 0.28 0.28 86 1010.0
20260508222100 13 332 0.0 3.2 0.23 0.25 0.25 86 1009.9
20260508221610 13 0 0.0 8.0 0.23 0.25 0.25 86 1009.9
20260508221100 13 333 0.0 8.0 0.23 0.23 0.23 86 1009.7
20260508220602 13 0 3.2 11.3 0.18 0.18 0.18 85 1010.1
20260508220100 13 306 4.8 11.3 0.15 0.15 0.15 85 1010.0
20260508215600 13 344 3.2 8.0 0.10 0.10 0.10 84 1010.2
20260508215100 13 326 3.2 9.7 0.10 0.10 0.10 84 1010.0
20260508214600 13 322 3.2 17.7 0.08 0.08 0.08 83 1009.8
20260508214102 13 309 6.4 17.7 0.05 0.05 0.05 82 1010.0
20260508213600 13 305 8.0 17.7 0.05 0.05 0.05 82 1009.9
20260508213058 13 321 6.4 17.7 0.03 0.03 0.03 81 1009.9
20260508212600 13 313 8.0 17.7 0.03 0.03 0.03 80 1010.0
20260508212100 14 320 11.3 19.3 0.03 0.03 0.03 79 1009.7
20260508211600 14 344 8.0 24.1 0.03 0.03 0.03 78 1009.7
20260508211100 15 306 9.7 24.1 0.00 0.00 0.00 75 1009.8
20260508210600 15 331 14.5 24.1 0.00 0.00 0.00 73 1009.8
20260508210058 16 319 9.7 19.3 0.00 0.00 0.00 72 1009.6
20260508205603 16 281 3.2 4.8 0.00 0.00 0.00 71 1009.5
20260508205103 16 280 1.6 4.8 0.00 0.00 0.00 70 1009.3
20260508204558 16 0 0.0 4.8 0.00 0.00 0.00 67 1009.3
20260508204059 17 0 0.0 4.8 0.00 0.00 0.00 64 1009.3
20260508203600 17 0 0.0 4.8 0.00 0.00 0.00 63 1009.4
20260508203112 17 0 0.0 4.8 0.00 0.00 0.00 62 1009.4
20260508202600 17 0 0.0 4.8 0.00 0.00 0.00 61 1009.7
20260508202059 17 0 0.0 4.8 0.00 0.00 0.00 60 1009.6
20260508201609 17 0 0.0 4.8 0.00 0.00 0.00 61 1009.8
20260508201059 17 281 1.6 9.7 0.00 0.00 0.00 59 1009.7
20260508200603 17 0 0.0 9.7 0.00 0.00 0.00 62 1009.7
20260508200111 17 0 0.0 4.8 0.00 0.00 0.00 61 1009.8
20260508195559 17 0 0.0 6.4 0.00 0.00 0.00 60 1009.9
20260508195100 17 0 0.0 6.4 0.00 0.00 0.00 60 1009.8
20260508194602 17 300 1.6 6.4 0.00 0.00 0.00 59 1009.9
20260508194059 17 0 1.6 6.4 0.00 0.00 0.00 60 1010.0
20260508193556 17 0 0.0 11.3 0.00 0.00 0.00 60 1010.1
20260508193105 17 244 1.6 11.3 0.00 0.00 0.00 59 1010.1
20260508192600 17 120 3.2 11.3 0.00 0.00 0.00 59 1010.2
20260508192100 17 0 1.6 9.7 0.00 0.00 0.00 59 1010.3
20260508191610 17 265 1.6 9.7 0.00 0.00 0.00 58 1010.2
20260508191059 17 185 3.2 9.7 0.00 0.00 0.00 59 1010.4
20260508190600 17 159 1.6 19.3 0.00 0.00 0.00 59 1010.6
20260508190100 17 213 0.0 19.3 0.00 0.00 0.00 58 1010.6
20260508185602 17 146 8.0 19.3 0.00 0.00 0.00 58 1010.8
20260508185059 17 0 3.2 16.1 0.00 0.00 0.00 59 1010.7
20260508184604 17 276 3.2 16.1 0.00 0.00 0.00 58 1011.0
20260508184102 17 0 3.2 16.1 0.00 0.00 0.00 57 1010.9
20260508183600 17 326 4.8 17.7 0.00 0.00 0.00 57 1010.9
20260508183144 16 285 6.4 22.5 0.00 0.00 0.00 56 1011.0
20260508182600 16 279 6.4 22.5 0.00 0.00 0.00 56 1011.0
20260508182059 17 182 1.6 14.5 0.00 0.00 0.00 57 1010.9
20260508181613 17 320 1.6 11.3 0.00 0.00 0.00 58 1010.9
20260508181059 17 271 3.2 11.3 0.00 0.00 0.00 56 1011.0
20260508180601 17 0 1.6 14.5 0.00 0.00 0.00 56 1010.9
20260508180103 17 279 3.2 22.5 0.00 0.00 0.00 55 1011.0
20260508175604 17 298 4.8 22.5 0.00 0.00 0.00 55 1011.0
20260508175102 17 289 8.0 22.5 0.00 0.00 0.00 53 1011.0
20260508174600 17 294 8.0 24.1 0.00 0.00 0.00 53 1010.9
20260508174102 18 273 9.7 24.1 0.00 0.00 0.00 51 1010.9
20260508173605 18 259 8.0 22.5 0.00 0.00 0.00 51 1011.0
20260508173109 18 297 6.4 19.3 0.00 0.00 0.00 52 1010.9
20260508172559 19 189 4.8 19.3 0.00 0.00 0.00 53 1011.0
20260508172059 19 296 6.4 20.9 0.00 0.00 0.00 50 1011.0
20260508171558 20 319 8.0 20.9 0.00 0.00 0.00 51 1011.1
20260508171059 20 0 4.8 17.7 0.00 0.00 0.00 53 1011.2
20260508170559 19 283 4.8 17.7 0.00 0.00 0.00 54 1011.4
20260508170100 18 134 4.8 22.5 0.00 0.00 0.00 55 1011.6
20260508165555 18 352 3.2 22.5 0.00 0.00 0.00 55 1011.6
20260508165056 18 146 4.8 20.9 0.00 0.00 0.00 54 1011.8
20260508164559 18 0 3.2 17.7 0.00 0.00 0.00 54 1011.8
20260508164056 18 262 6.4 17.7 0.00 0.00 0.00 54 1011.9
20260508163555 18 315 3.2 19.3 0.00 0.00 0.00 54 1012.0
20260508163057 18 60 6.4 19.3 0.00 0.00 0.00 54 1012.1
20260508162600 18 126 6.4 19.3 0.00 0.00 0.00 52 1012.2
20260508162059 19 311 4.8 17.7 0.00 0.00 0.00 54 1012.2
20260508161556 18 275 3.2 17.7 0.00 0.00 0.00 57 1012.2
20260508161100 17 50 1.6 17.7 0.00 0.00 0.00 57 1012.3
20260508160601 17 58 4.8 17.7 0.00 0.00 0.00 57 1012.4
20260508155559 17 152 3.2 16.1 0.00 0.00 0.00 56 1012.5
20260508155100 17 130 4.8 16.1 0.00 0.00 0.00 56 1012.4
20260508154557 17 162 3.2 11.3 0.00 0.00 0.00 57 1012.4
20260508154059 16 130 3.2 12.9 0.00 0.00 0.00 57 1012.5
20260508153559 17 157 3.2 12.9 0.00 0.00 0.00 58 1012.7
20260508153058 17 329 3.2 12.9 0.00 0.00 0.00 56 1012.7
20260508152555 16 250 3.2 16.1 0.00 0.00 0.00 56 1012.8
20260508152058 16 217 4.8 16.1 0.00 0.00 0.00 57 1012.6
20260508151558 16 346 3.2 16.1 0.00 0.00 0.00 56 1012.7
20260508151056 16 360 4.8 16.1 0.00 0.00 0.00 57 1012.5
20260508150556 16 290 4.8 14.5 0.00 0.00 0.00 57 1012.7
20260508150122 16 290 4.8 12.9 0.00 0.00 0.00 56 1012.7
20260508145556 17 184 3.2 12.9 0.00 0.00 0.00 56 1012.7
20260508145055 17 115 1.6 16.1 0.00 0.00 0.00 57 1012.8
20260508144605 17 219 4.8 16.1 0.00 0.00 0.00 58 1012.8
20260508144056 16 236 4.8 16.1 0.00 0.00 0.00 58 1012.9
20260508143601 16 280 4.8 14.5 0.00 0.00 0.00 56 1012.9
20260508143108 16 289 1.6 17.7 0.00 0.00 0.00 57 1012.9
20260508142602 16 298 1.6 17.7 0.00 0.00 0.00 57 1013.2
20260508142104 16 284 4.8 17.7 0.00 0.00 0.00 57 1013.0
20260508141607 16 316 3.2 12.9 0.00 0.00 0.00 58 1013.1
20260508141100 15 259 1.6 12.9 0.00 0.00 0.00 58 1013.1
20260508140601 15 167 3.2 14.5 0.00 0.00 0.00 58 1013.1
20260508140109 15 340 4.8 16.1 0.00 0.00 0.00 57 1013.1
20260508135604 15 130 4.8 16.1 0.00 0.00 0.00 58 1013.2
20260508135100 15 274 4.8 16.1 0.00 0.00 0.00 59 1013.2
20260508134604 15 171 4.8 16.1 0.00 0.00 0.00 58 1013.1
20260508134100 15 0 3.2 16.1 0.00 0.00 0.00 58 1013.2
20260508133601 15 241 6.4 20.9 0.00 0.00 0.00 60 1013.3
20260508133100 14 178 3.2 20.9 0.00 0.00 0.00 59 1013.3
20260508132604 14 277 4.8 20.9 0.00 0.00 0.00 58 1013.3
20260508132100 14 268 1.6 17.7 0.00 0.00 0.00 60 1013.3
20260508131604 13 155 1.6 17.7 0.00 0.00 0.00 60 1013.4
20260508131101 13 309 3.2 16.1 0.00 0.00 0.00 60 1013.3
20260508130603 13 155 3.2 16.1 0.00 0.00 0.00 60 1013.4
20260508130059 13 306 3.2 11.3 0.00 0.00 0.00 60 1013.4
20260508125601 13 0 1.6 9.7 0.00 0.00 0.00 61 1013.6
20260508125101 12 214 1.6 9.7 0.00 0.00 0.00 61 1013.4
20260508124603 12 172 1.6 9.7 0.00 0.00 0.00 61 1013.6
20260508124102 12 296 3.2 8.0 0.00 0.00 0.00 61 1013.5
20260508123602 12 292 0.0 4.8 0.00 0.00 0.00 63 1013.5
20260508123101 12 0 0.0 4.8 0.00 0.00 0.00 63 1013.5
20260508122601 11 0 0.0 4.8 0.00 0.00 0.00 64 1013.5
20260508122101 11 0 0.0 1.6 0.00 0.00 0.00 64 1013.6
20260508121600 10 0 0.0 0.0 0.00 0.00 0.00 64 1013.5
20260508121100 10 0 0.0 0.0 0.00 0.00 0.00 66 1013.6
20260508120600 10 0 0.0 4.8 0.00 0.00 0.00 67 1013.4
20260508115601 9 352 0.0 3.2 0.00 0.00 0.00 67 1013.4
20260508115102 9 0 0.0 1.6 0.00 0.00 0.00 67 1013.5
20260508114604 9 0 0.0 1.6 0.00 0.00 0.00 67 1013.6
20260508114101 9 0 0.0 1.6 0.00 0.00 0.00 67 1013.4
20260508113601 9 0 0.0 1.6 0.00 0.00 0.00 67 1013.2
20260508113125 9 0 0.0 3.2 0.00 0.00 0.00 67 1013.2
20260508112600 9 0 0.0 3.2 0.00 0.00 0.00 66 1013.4
20260508112104 9 350 0.0 4.8 0.00 0.00 0.00 66 1013.4
20260508111603 9 0 0.0 4.8 0.00 0.00 0.00 66 1013.3
20260508111100 10 0 0.0 6.4 0.00 0.00 0.00 65 1013.3
20260508110600 10 0 0.0 6.4 0.00 0.00 0.00 65 1013.3
20260508110057 10 352 1.6 6.4 0.00 0.00 0.00 64 1013.3
20260508105600 10 265 1.6 6.4 0.00 0.00 0.00 64 1013.1
20260508105100 10 299 0.0 14.5 0.00 0.00 0.00 64 1013.1
20260508104604 10 0 4.8 14.5 0.00 0.00 0.00 64 1013.3
20260508104100 10 5 3.2 9.7 0.00 0.00 0.00 63 1013.3
20260508103601 10 0 1.6 9.7 0.00 0.00 0.00 63 1012.8
20260508103107 10 0 1.6 9.7 0.00 0.00 0.00 63 1012.8
20260508102602 10 132 0.0 9.7 0.00 0.00 0.00 63 1012.7
20260508102101 10 268 0.0 6.4 0.00 0.00 0.00 63 1012.6
20260508101601 10 0 1.6 9.7 0.00 0.00 0.00 63 1012.5
20260508101102 10 313 1.6 9.7 0.00 0.00 0.00 63 1012.5
20260508100601 10 0 0.0 6.4 0.00 0.00 0.00 62 1012.6
20260508100100 10 0 0.0 9.7 0.00 0.00 0.00 62 1012.7
20260508095603 10 0 0.0 9.7 0.00 0.00 0.00 62 1012.6
20260508095102 10 275 0.0 8.0 0.00 0.00 0.00 62 1012.6
20260508094559 10 161 1.6 4.8 0.00 0.00 0.00 61 1012.6
20260508094101 10 244 0.0 8.0 0.00 0.00 0.00 61 1012.7
20260508093600 11 0 0.0 11.3 0.00 0.00 0.00 61 1012.7
20260508093100 11 0 0.0 11.3 0.00 0.00 0.00 61 1012.7
20260508092600 11 0 0.0 11.3 0.00 0.00 0.00 61 1012.8
20260508092100 11 117 0.0 4.8 0.00 0.00 0.00 61 1012.7
20260508091600 11 283 0.0 4.8 0.00 0.00 0.00 61 1012.7
20260508091101 11 242 0.0 4.8 0.00 0.00 0.00 61 1012.8
20260508090601 11 0 0.0 4.8 0.00 0.00 0.00 61 1012.9
20260508085600 11 0 0.0 4.8 0.00 0.00 0.00 61 1013.0
20260508085100 11 0 0.0 4.8 0.00 0.00 0.00 61 1012.8
20260508084609 11 0 0.0 4.8 0.00 0.00 0.00 61 1013.0
20260508084101 11 254 0.0 6.4 0.00 0.00 0.00 61 1013.0
20260508083600 11 0 0.0 9.7 0.00 0.00 0.00 61 1013.2
20260508083103 11 315 1.6 9.7 0.00 0.00 0.00 61 1013.2
20260508082600 11 247 0.0 4.8 0.00 0.00 0.00 61 1013.2
20260508082100 11 263 0.0 9.7 0.00 0.00 0.00 61 1013.2
20260508081614 11 0 0.0 9.7 0.00 0.00 0.00 60 1013.2
20260508081100 11 0 3.2 11.3 0.00 0.00 0.00 60 1013.3
20260508080600 11 295 3.2 11.3 0.00 0.00 0.00 60 1013.5
20260508080100 11 262 1.6 14.5 0.00 0.00 0.00 60 1013.5
20260508075600 11 0 3.2 17.7 0.00 0.00 0.00 59 1013.5
20260508075059 11 266 0.0 17.7 0.00 0.00 0.00 59 1013.5
20260508074609 11 267 4.8 17.7 0.00 0.00 0.00 59 1013.5
20260508074103 11 297 1.6 11.3 0.00 0.00 0.00 59 1013.3
20260508073601 11 289 0.0 11.3 0.00 0.00 0.00 59 1013.2
20260508073107 11 0 3.2 11.3 0.00 0.00 0.00 59 1013.2
20260508072600 11 0 1.6 12.9 0.00 0.00 0.00 60 1013.3
20260508072100 11 0 1.6 12.9 0.00 0.00 0.00 60 1013.4
20260508071602 11 242 0.0 8.0 0.00 0.00 0.00 60 1013.3
20260508071100 11 0 1.6 8.0 0.00 0.00 0.00 60 1013.2
20260508070601 11 307 0.0 11.3 0.00 0.00 0.00 60 1013.2
20260508070104 11 286 0.0 11.3 0.00 0.00 0.00 59 1013.2
20260508065601 11 0 1.6 11.3 0.00 0.00 0.00 59 1013.4
20260508065101 11 268 1.6 11.3 0.00 0.00 0.00 59 1013.5
20260508064609 11 0 0.0 9.7 0.00 0.00 0.00 59 1013.6
20260508064101 11 279 0.0 9.7 0.00 0.00 0.00 59 1013.5
20260508063600 11 242 1.6 8.0 0.00 0.00 0.00 59 1013.5
20260508063059 11 0 0.0 8.0 0.00 0.00 0.00 59 1013.8
20260508062600 11 0 0.0 8.0 0.00 0.00 0.00 59 1013.6
20260508062100 11 208 0.0 11.3 0.00 0.00 0.00 60 1013.6
20260508061604 11 178 1.6 11.3 0.00 0.00 0.00 59 1013.6
20260508061101 11 265 1.6 12.9 0.00 0.00 0.00 60 1013.6
20260508060600 11 0 1.6 12.9 0.00 0.00 0.00 60 1013.5
20260508060108 11 225 0.0 12.9 0.00 0.00 0.00 60 1013.5
20260508055602 11 153 3.2 12.9 0.00 0.00 0.00 60 1013.5
20260508055100 11 0 0.0 9.7 0.00 0.00 0.00 60 1013.5